LEMUR 2 EMERSONROSE

导读

LEMUR 2 EMERSONROSE是Spire Global公司LEMUR-2系列低轨多用途立方星,发射国家暂未明确,于2025年3月15日发射,运行于约550公里高度的太阳同步轨道。作为3U纳米卫星,它质量仅4.6千克,主要承担无线电掩星探测、船舶跟踪任务,可获取大气数据支撑气象预报,相关数据已商业化开放,为地球观测与气候研究贡献力量。

基本信息
目录编号:
63261
目录名称:
LEMUR 2 EMERSONROSE
国际标识:
2025-052BD
轨道中心:
EARTH
卫星名称:
LEMUR 2 EMERSONROSE
卫星全名:
LEMUR 2 EMERSONROSE
卫星状态:
在轨 (已飞行539 天)
发射日期:
2025-03-15 UTC
国别 :
美国 (US)
星等 :
--
轨道信息
数据来源 国际轨道数据
星历时间: 2026-09-03T23:26:19+0800
1天前
查看轨道信息
半长轴: 6946.37km
偏心率: 0.0004154
轨道倾角: 97.676°
近地点辐角 129.963°
升交点赤经 138.891°
平近点角 230.196°
近地点: 565.347km
远地点: 571.119km
周期: 96.028分钟
每日圈数: 14.995671
详细信息
使用方式:
暂无
2D轨道图
3D轨道图
轨道高度分析图
轨道倾角分析图
轨道综合分析图
查看轨道综合分析图
交会数据列表
事件ID 空间交会对象 最接近时刻(TCA) 交会距离 交会风险概率(CRP) 交会风险指数(CRI) 操作
CDM_260907-022406-326106-709021
2026-09-07T
02:24:17+0000
2.164 km
极远距离
2.276673E-6 低风险 0.42
CDM_260906-215306-326106-666621
2026-09-06T
21:53:45+0000
2.251 km
极远距离
2.181129E-6 低风险 0.42
CDM_260905-065105-541106-326124
2026-09-05T
06:51:09+0000
2.463 km
极远距离
1.816807E-6 低风险 0.4
CDM_260906-151805-527206-326121
2026-09-06T
15:18:03+0000
2.999 km
极远距离
1.34748E-6 低风险 0.38